Jacksonville, FL

1:41 PM EDT on October 01, 2016 (GMT -0400)
Craig Municipal

Weather History for KCRG - October, 2014

Change the Weather History Date:

Thursday, October 9, 2014

  Actual Average Record
Temperature  
Mean Temperature 76 °F -  
Max Temperature 87 °F 78 °F 87 °F (2014)
Min Temperature 66 °F 64 °F 50 °F (2000)
Cooling Degree Days 11    
Growing Degree Days 26 (Base 50)    
Moisture  
Dew Point 67 °F    
Average Humidity 82    
Maximum Humidity 93    
Minimum Humidity 53    
Precipitation  
Precipitation 0.00 in - - ()
Sea Level Pressure  
Sea Level Pressure 30.10 in    
Wind  
Wind Speed 1 mph (NE)    
Max Wind Speed 9 mph    
Max Gust Speed -    
Visibility 7 miles    
Events      
Averages and records for this station are not official NWS values.
T = Trace of Precipitation, MM = Missing Value Source: NWS Daily Summary

Daily Weather History Graph

Daily Weather History Graph

Search for Another Location

Airport or City:

Trip Planner

Search our weather history database for the weather conditions in past years. The results will help you decide how hot, cold, wet, or windy it might be!

Date:

Astronomy

Oct. 09, 2014 Rise Set
Actual Time 7:24 AM EDT 7:01 PM EDT
Civil Twilight 7:00 AM EDT 7:25 PM EDT
Nautical Twilight 6:32 AM EDT 7:53 PM EDT
Astronomical Twilight 6:04 AM EDT 8:21 PM EDT
Moon 8:04 PM EDT (10/9) 8:32 AM EDT (10/9)
Length of Visible Light 12h 25m
Length of Day
11h 37m
Full, 98% of the Moon is Illuminated
Oct 9
Full
Oct 15
Last Quarter
Oct 23
New
Oct 30
First Quarter
Nov 6
Full

Hourly Weather History & Observations

Time (EDT) Temp. Heat Index Dew Point Humidity Pressure Visibility Wind Dir Wind Speed Gust Speed Precip Events Conditions
12:53 AM 69.1 °F - 66.0 °F 90% 30.10 in 10.0 mi Calm Calm - N/A   Clear
1:53 AM 69.1 °F - 66.0 °F 90% 30.10 in 8.0 mi Calm Calm - N/A   Clear
2:53 AM 66.9 °F - 64.9 °F 93% 30.09 in 6.0 mi Calm Calm - N/A   Clear
3:53 AM 68.0 °F - 64.9 °F 90% 30.09 in 7.0 mi Calm Calm - N/A   Clear
4:43 AM 68.0 °F - 66.0 °F 93% 30.09 in 1.8 mi Calm Calm - N/A   Clear
4:53 AM 68.0 °F - 66.0 °F 93% 30.09 in 2.5 mi Calm Calm - N/A   Clear
5:02 AM 66.9 °F - 64.9 °F 93% 30.09 in 4.0 mi Calm Calm - N/A   Clear
5:19 AM 68.0 °F - 64.9 °F 90% 30.09 in 1.5 mi Calm Calm - N/A   Clear
5:37 AM 66.9 °F - 64.9 °F 93% 30.09 in 3.0 mi Calm Calm - N/A   Clear
5:46 AM 68.0 °F - 66.0 °F 93% 30.10 in 2.0 mi Calm Calm - N/A   Clear
5:53 AM 68.0 °F - 66.0 °F 93% 30.10 in 2.5 mi Calm Calm - N/A   Clear
6:00 AM 66.9 °F - 64.9 °F 93% 30.10 in 1.5 mi Calm Calm - N/A   Clear
6:14 AM 68.0 °F - 64.9 °F 90% 30.10 in 2.5 mi Calm Calm - N/A   Clear
6:53 AM 68.0 °F - 66.0 °F 93% 30.11 in 2.5 mi Calm Calm - N/A   Clear
7:04 AM 68.0 °F - 66.0 °F 93% 30.11 in 10.0 mi Calm Calm - N/A   Clear
7:53 AM 68.0 °F - 66.0 °F 93% 30.12 in 3.0 mi Calm Calm - 0.00 in   Clear
8:53 AM 73.9 °F - 70.0 °F 87% 30.14 in 10.0 mi Calm Calm - N/A   Clear
9:53 AM 78.1 °F - 71.1 °F 79% 30.14 in 10.0 mi NW 4.6 mph - N/A   Clear
10:53 AM 82.0 °F 85.5 °F 69.1 °F 65% 30.14 in 10.0 mi North 5.8 mph - N/A   Clear
11:53 AM 84.0 °F 87.0 °F 68.0 °F 58% 30.13 in 10.0 mi Variable 4.6 mph - N/A   Clear
12:53 PM 84.9 °F 87.1 °F 66.0 °F 53% 30.12 in 10.0 mi NNE 5.8 mph - N/A   Clear
1:53 PM 86.0 °F 88.8 °F 66.9 °F 53% 30.10 in 10.0 mi NE 9.2 mph - N/A   Clear
2:53 PM 86.0 °F 89.4 °F 68.0 °F 55% 30.08 in 10.0 mi NE 6.9 mph - N/A   Clear
3:53 PM 86.0 °F 89.4 °F 68.0 °F 55% 30.07 in 10.0 mi Variable 3.5 mph - N/A   Clear
4:53 PM 84.9 °F 88.2 °F 68.0 °F 57% 30.06 in 10.0 mi ENE 9.2 mph - N/A   Clear
5:53 PM 82.9 °F 85.8 °F 68.0 °F 60% 30.06 in 10.0 mi ENE 6.9 mph - N/A   Clear
6:53 PM 79.0 °F - 70.0 °F 74% 30.07 in 10.0 mi ENE 4.6 mph - N/A   Clear
7:53 PM 75.9 °F - 71.1 °F 85% 30.07 in 10.0 mi East 3.5 mph - N/A   Clear
8:53 PM 73.9 °F - 71.1 °F 91% 30.08 in 10.0 mi Calm Calm - N/A   Clear
9:53 PM 73.9 °F - 71.1 °F 91% 30.09 in 8.0 mi Calm Calm - N/A   Clear
10:53 PM 73.0 °F - 70.0 °F 90% 30.10 in 8.0 mi Calm Calm - N/A   Clear
11:53 PM 71.1 °F - 68.0 °F 90% 30.10 in 5.0 mi Calm Calm - N/A   Clear